Home   Weather   40°01'N, 75°13'W   Past weeks
Flag for USA

Past Weather in 40°01'N, 75°13'W, USA — Yesterday and Last 2 Weeks

Now
52 °F

Overcast.


Feels Like: 52 °F
Forecast: 56 / 47 °F
Wind: No wind

Location: Philadelphia International Airport

Current Time: Oct 20, 2019 at 2:00:55 am

Latest Report: Oct 20, 2019 at 12:54 am


Visibility: 10 mi

Pressure: 30.04 "Hg

Humidity: 80%

Dew Point: 46 °F

Location of 40°01'N, 75°13'WLocation

Past Weather in 40°01'N, 75°13'W — Graph

°F

40°01'N, 75°13'W Temperature Yesterday

Maximum temperature yesterday: 62 °F (at 2:54 pm)
Minimum temperature yesterday: 42 °F (at 6:54 am)
Average temperature yesterday: 52 °F

High & Low Weather Summary for the Past Weeks

 TemperatureHumidityPressure
High81 °F (Oct 7, 3:54 pm)94% (Oct 16, 2:54 pm)30.47 "Hg (Oct 16, 2:54 pm)
Low42 °F (Oct 19, 6:54 am)26% (Oct 10, 5:54 pm)29.33 "Hg (Oct 16, 6:37 pm)
Average60 °F62%30.05 "Hg
* Reported Oct 5 12:54 am — Oct 20 12:54 am, 40°01'N, 75°13'W. Weather by CustomWeather, © 2019

Note: Actual official high and low records may vary slightly from our data, if they occured in-between our weather recording intervals... More about our weather records

Advertising

40°01'N, 75°13'W Weather History for the Previous 24 Hours

Scroll right to see more
 ConditionsComfort  
Time TempWeatherWind HumidityBarometerVisibility
12:54 am
Sun, Oct 20
52 °FOvercast.No wind80%30.04 "Hg10 mi
11:54 pm
Sat, Oct 19
53 °FHigh level clouds.No wind77%30.04 "Hg10 mi
10:54 pm52 °FPassing clouds.3 mph77%30.04 "Hg10 mi
9:54 pm53 °FPassing clouds.3 mph72%30.05 "Hg10 mi
8:54 pm54 °FPassing clouds.6 mph64%30.05 "Hg10 mi
7:54 pm58 °FPassing clouds.7 mph51%30.04 "Hg10 mi
6:54 pm58 °FPassing clouds.6 mph47%30.03 "Hg10 mi
5:54 pm61 °FPartly sunny.7 mph41%30.03 "Hg10 mi
4:54 pm62 °FPartly sunny.8 mph38%30.03 "Hg10 mi
3:54 pm62 °FPartly sunny.7 mph38%30.04 "Hg10 mi
2:54 pm62 °FPartly sunny.10 mph38%30.05 "Hg10 mi
1:54 pm60 °FScattered clouds.10 mph38%30.06 "Hg10 mi
12:54 pm58 °FScattered clouds.10 mph43%30.09 "Hg10 mi
11:54 am55 °FPassing clouds.6 mph47%30.11 "Hg10 mi
10:54 am53 °FPassing clouds.3 mph51%30.12 "Hg10 mi
9:54 am51 °FScattered clouds.3 mph56%30.13 "Hg10 mi
8:54 am47 °FPassing clouds.No wind66%30.12 "Hg10 mi
7:54 am42 °FPassing clouds.No wind76%30.11 "Hg10 mi
6:54 am42 °FPassing clouds.5 mph76%30.11 "Hg10 mi
5:54 am44 °FClear.5 mph71%30.09 "Hg10 mi
4:54 am43 °FClear.5 mph74%30.06 "Hg10 mi
3:54 am45 °FClear.5 mph68%30.05 "Hg10 mi
2:54 am45 °FClear.7 mph68%30.04 "Hg10 mi
Weather by CustomWeather, © 2019

See weather overview